 day,  time,  air_temp(C),  RH(%),  ground_temp10cm(C),  ground_temp20cm(C),  ground_temp40cm(C),  precipitation(mm/h),  Solar_Radiation(MJ/m2h),  lack, 
 08/08/01, 01:00,  15.9,  99,  21.0,  21.4,  20.1,   0.0,  0.00, 
 08/08/01, 02:00,  17.1,  99,  20.9,  21.3,  20.1,   0.0,  0.00, 
 08/08/01, 03:00,  17.0,  99,  20.7,  21.2,  20.1,   0.0,  0.00, 
 08/08/01, 04:00,  15.9,  99,  20.6,  21.1,  20.3,   0.0,  0.00, 
 08/08/01, 05:00,  15.2,  99,  20.3,  21.0,  20.0,   0.0,  0.00, 
 08/08/01, 06:00,  15.7,  99,  20.1,  21.0,  20.5,   0.0,  0.00, 
 08/08/01, 07:00,  17.5,  99,  20.0,  20.9,  20.4,   0.0,  0.00, 
 08/08/01, 08:00,  19.0,  95,  20.0,  20.8,  20.5,   0.0,  0.00, 
 08/08/01, 09:00,  19.1,  92,  20.3,  20.8,  20.3,   0.0,  0.00, 
 08/08/01, 10:00,  20.8,  91,  20.7,  20.6,  20.4,   0.0,  0.00, 
 08/08/01, 11:00,  21.1,  78,  21.2,  20.7,  20.4,   0.0,  0.00, 
 08/08/01, 12:00,  23.6,  57,  22.1,  20.7,  20.4,   0.0,  0.00, 
 08/08/01, 13:00,  25.0,  53,  23.3,  20.8,  20.4,   0.0,  0.00, 
 08/08/01, 14:00,  24.8,  48,  23.6,  20.9,  20.4,   0.0,  0.00, 
 08/08/01, 15:00,  25.0,  51,  23.5,  21.2,  20.4,   0.0,  0.00, 
 08/08/01, 16:00,  24.7,  56,  23.4,  21.4,  20.4,   0.0,  0.00, 
 08/08/01, 17:00,  23.4,  66,  23.5,  21.5,  20.4,   0.0,  0.00, 
 08/08/01, 18:00,  22.1,  75,  23.5,  21.6,  20.4,   0.0,  0.00, 
 08/08/01, 19:00,  20.7,  87,  23.2,  21.7,  20.4,   0.0,  0.00, 
 08/08/01, 20:00,  20.2,  95,  22.9,  21.7,  20.4,   0.0,  0.00, 
 08/08/01, 21:00,  19.9,  96,  22.7,  21.8,  20.4,   0.0,  0.00, 
 08/08/01, 22:00,  18.9,  97,  22.5,  21.8,  20.4,   0.0,  0.00, 
 08/08/01, 23:00,  19.2,  96,  22.1,  21.7,  20.4,   0.0,  0.00, 
 08/08/02, 00:00,  18.3,  98,  21.9,  21.7,  20.4,   0.0,  0.00, 
 08/08/02, 01:00,  18.3,  94,  21.7,  21.7,  20.1,   0.0,  0.00, 
 08/08/02, 02:00,  18.1,  95,  21.6,  21.7,  20.1,   0.0,  0.00, 
 08/08/02, 03:00,  17.3,  99,  21.3,  21.7,  20.4,   0.0,  0.00, 
 08/08/02, 04:00,  16.7,  99,  21.1,  21.6,  20.2,   0.0,  0.00, 
 08/08/02, 05:00,  16.4,  96,  20.9,  21.5,  20.2,   0.0,  0.00, 
 08/08/02, 06:00,  16.8,  93,  20.7,  21.3,  20.5,   0.0,  0.00, 
 08/08/02, 07:00,  18.8,  90,  20.5,  21.3,  20.5,   0.0,  0.00, 
 08/08/02, 08:00,  20.0,  88,  20.5,  21.1,  20.5,   0.0,  0.00, 
 08/08/02, 09:00,  21.0,  86,  20.8,  21.0,  20.5,   0.0,  0.00, 
 08/08/02, 10:00,  22.2,  79,  21.2,  21.1,  20.5,   0.0,  0.00, 
 08/08/02, 11:00,  23.4,  77,  21.9,  21.1,  20.5,   0.0,  0.00, 
 08/08/02, 12:00,  23.9,  78,  22.9,  21.1,  20.5,   0.0,  0.00, 
 08/08/02, 13:00,  26.3,  72,  23.5,  21.2,  20.5,   0.0,  0.00, 
 08/08/02, 14:00,  24.2,  80,  23.9,  21.3,  20.5,   0.0,  0.00, 
 08/08/02, 15:00,  24.6,  79,  24.1,  21.5,  20.5,   0.0,  0.00, 
 08/08/02, 16:00,  25.0,  77,  24.1,  21.7,  20.2,   0.0,  0.00, 
 08/08/02, 17:00,  22.7,  86,  24.1,  21.8,  20.2,   0.0,  0.00, 
 08/08/02, 18:00,  21.6,  86,  24.1,  22.0,  20.5,   0.0,  0.00, 
 08/08/02, 19:00,  20.4,  91,  23.8,  22.1,  20.5,   0.0,  0.00, 
 08/08/02, 20:00,  20.0,  94,  23.5,  22.1,  20.2,   0.0,  0.00, 
 08/08/02, 21:00,  20.0,  97,  23.2,  22.1,  20.5,   0.0,  0.00, 
 08/08/02, 22:00,  19.9,  95,  22.9,  22.1,  20.2,   0.0,  0.00, 
 08/08/02, 23:00,  19.5,  96,  22.6,  22.1,  20.2,   0.0,  0.00, 
 08/08/03, 00:00,  19.6,  91,  22.4,  22.1,  20.5,   0.0,  0.00, 
 08/08/03, 01:00,  19.0,  96,  22.0,  22.0,  20.2,   0.0,  0.00, 
 08/08/03, 02:00,  18.7,  98,  21.8,  22.0,  20.3,   0.0,  0.00, 
 08/08/03, 03:00,  18.4,  95,  21.7,  21.9,  20.3,   0.0,  0.00, 
 08/08/03, 04:00,  18.4,  91,  21.5,  21.8,  20.3,   0.0,  0.00, 
 08/08/03, 05:00,  18.0,  93,  21.2,  21.7,  20.3,   0.0,  0.00, 
 08/08/03, 06:00,  18.3,  91,  20.9,  21.7,  20.3,   0.0,  0.00, 
 08/08/03, 07:00,  19.7,  91,  20.9,  21.6,  20.6,   0.0,  0.00, 
 08/08/03, 08:00,  21.8,  81,  20.9,  21.5,  20.6,   0.0,  0.00, 
 08/08/03, 09:00,  22.2,  80,  21.3,  21.3,  20.6,   0.0,  0.00, 
 08/08/03, 10:00,  23.4,  74,  21.8,  21.4,  20.6,   0.0,  0.00, 
 08/08/03, 11:00,  24.0,  72,  22.7,  21.3,  20.3,   0.0,  0.00, 
 08/08/03, 12:00,  25.0,  70,  23.6,  21.4,  20.6,   0.0,  0.00, 
 08/08/03, 13:00,  24.9,  75,  24.5,  21.6,  20.6,   0.0,  0.00, 
 08/08/03, 14:00,  26.7,  68,  24.8,  21.8,  20.6,   0.0,  0.00, 
 08/08/03, 15:00,  27.4,  64,  24.9,  22.0,  20.6,   0.0,  0.00, 
 08/08/03, 16:00,  25.9,  66,  24.9,  22.1,  20.3,   0.0,  0.00, 
 08/08/03, 17:00,  25.0,  70,  25.0,  22.4,  20.6,   0.0,  0.00, 
 08/08/03, 18:00,  23.4,  75,  24.9,  22.5,  20.6,   0.0,  0.00, 
 08/08/03, 19:00,  21.8,  82,  24.6,  22.6,  20.6,   0.0,  0.00, 
 08/08/03, 20:00,  20.7,  90,  24.1,  22.7,  20.6,   0.0,  0.00, 
 08/08/03, 21:00,  20.7,  90,  23.7,  22.6,  20.4,   0.0,  0.00, 
 08/08/03, 22:00,  20.3,  93,  23.5,  22.7,  20.7,   0.0,  0.00, 
 08/08/03, 23:00,  20.2,  95,  23.2,  22.7,  20.5,   0.0,  0.00, 
 08/08/04, 00:00,  20.6,  94,  22.9,  22.6,  20.4,   0.0,  0.00, 
 08/08/04, 01:00,  20.3,  95,  22.8,  22.6,  20.4,   0.0,  0.00, 
 08/08/04, 02:00,  20.0,  94,  22.6,  22.4,  20.5,   0.0,  0.00, 
 08/08/04, 03:00,  19.9,  94,  22.5,  22.3,  20.5,   0.0,  0.00, 
 08/08/04, 04:00,  19.4,  92,  22.2,  22.3,  20.5,   0.0,  0.00, 
 08/08/04, 05:00,  20.0,  85,  22.0,  22.2,  20.5,   0.0,  0.00, 
 08/08/04, 06:00,  19.8,  88,  21.9,  22.1,  20.5,   0.0,  0.00, 
 08/08/04, 07:00,  19.8,  91,  21.8,  22.1,  20.8,   0.0,  0.00, 
 08/08/04, 08:00,  18.8,  99,  21.7,  22.0,  20.5,   0.5,  0.00, 
 08/08/04, 09:00,  19.4,  99,  21.7,  21.9,  20.8,   0.5,  0.00, 
 08/08/04, 10:00,  21.4,  99,  21.8,  21.8,  20.9,   0.0,  0.00, 
 08/08/04, 11:00,  21.7,  99,  21.9,  21.8,  20.8,   0.0,  0.00, 
 08/08/04, 12:00,  21.9,  99,  22.2,  21.7,  20.6,   0.0,  0.00, 
 08/08/04, 13:00,  22.9,  96,  22.7,  21.7,  20.6,   0.0,  0.00, 
 08/08/04, 14:00,  22.2,  95,  23.1,  21.8,  20.6,   0.0,  0.00, 
 08/08/04, 15:00,  24.9,  79,  23.3,  21.8,  20.6,   0.0,  0.00, 
 08/08/04, 16:00,  24.2,  86,  23.7,  21.9,  20.9,   0.0,  0.00, 
 08/08/04, 17:00,  23.1,  90,  24.1,  22.0,  20.5,   0.0,  0.00, 
 08/08/04, 18:00,  22.1,  94,  24.1,  22.1,  20.8,   0.0,  0.00, 
 08/08/04, 19:00,  20.7,  98,  23.9,  22.2,  20.8,   0.0,  0.00, 
 08/08/04, 20:00,  19.9,  99,  23.7,  22.3,  20.5,   0.0,  0.00, 
 08/08/04, 21:00,  19.7,  99,  23.3,  22.3,  20.8,   0.0,  0.00, 
 08/08/04, 22:00,  19.2,  99,  23.2,  22.5,  20.9,   0.0,  0.00, 
 08/08/04, 23:00,  19.5,  99,  22.9,  22.4,  20.6,   0.0,  0.00, 
 08/08/05, 00:00,  19.4,  99,  22.8,  22.3,  20.6,   0.0,  0.00, 
 08/08/05, 01:00,  19.6,  99,  22.6,  22.3,  20.6,   0.0,  0.00, 
 08/08/05, 02:00,  18.7,  99,  22.3,  22.2,  20.6,   0.0,  0.00, 
 08/08/05, 03:00,  19.1,  99,  22.1,  22.2,  20.6,   0.0,  0.00, 
 08/08/05, 04:00,  19.9,  99,  21.9,  22.1,  20.6,   0.0,  0.00, 
 08/08/05, 05:00,  19.6,  99,  21.8,  22.0,  20.6,   0.0,  0.00, 
 08/08/05, 06:00,  19.6,  99,  21.7,  22.0,  20.6,   0.0,  0.00, 
 08/08/05, 07:00,  20.7,  95,  21.7,  21.9,  20.9,   0.0,  0.00, 
 08/08/05, 08:00,  20.6,  99,  21.7,  21.8,  20.9,   0.0,  0.00, 
 08/08/05, 09:00,  22.4,  93,  21.8,  21.8,  20.9,   0.0,  0.00, 
 08/08/05, 10:00,  21.6,  97,  22.1,  21.7,  20.9,   0.0,  0.00, 
 08/08/05, 11:00,  24.9,  80,  22.6,  21.8,  20.9,   0.0,  0.00, 
 08/08/05, 12:00,  25.2,  76,  23.6,  21.7,  20.9,   0.0,  0.00, 
 08/08/05, 13:00,  26.5,  73,  24.9,  21.8,  20.9,   0.0,  0.00, 
 08/08/05, 14:00,  25.8,  75,  25.3,  22.0,  20.9,   0.0,  0.00, 
 08/08/05, 15:00,  27.0,  69,  25.3,  22.2,  20.9,   0.0,  0.00, 
 08/08/05, 16:00,  26.1,  78,  25.3,  22.4,  20.9,   0.0,  0.00, 
 08/08/05, 17:00,  22.0,  97,  25.5,  22.7,  20.9,   0.0,  0.00, 
 08/08/05, 18:00,  20.7,  99,  25.3,  22.9,  20.6,   0.0,  0.00, 
 08/08/05, 19:00,  20.2,  99,  25.0,  23.0,  20.9,   0.5,  0.00, 
 08/08/05, 20:00,  19.7,  99,  24.7,  23.0,  20.9,   0.0,  0.00, 
 08/08/05, 21:00,  19.7,  99,  24.4,  23.0,  20.9,   0.0,  0.00, 
 08/08/05, 22:00,  19.7,  99,  24.1,  23.0,  21.0,   0.0,  0.00, 
 08/08/05, 23:00,  19.4,  99,  23.8,  23.1,  21.0,   0.5,  0.00, 
 08/08/06, 00:00,  19.3,  99,  23.6,  23.0,  21.0,   0.0,  0.00, 
 08/08/06, 01:00,  19.3,  99,  23.3,  22.9,  20.7,   0.0,  0.00, 
 08/08/06, 02:00,  19.2,  99,  23.2,  22.9,  20.8,   0.5,  0.00, 
 08/08/06, 03:00,  19.0,  99,  22.9,  22.8,  20.8,   2.5,  0.00, 
 08/08/06, 04:00,  18.5,  99,  22.7,  22.7,  21.0,   3.5,  0.00, 
 08/08/06, 05:00,  18.0,  99,  22.4,  22.6,  21.0,   0.0,  0.00, 
 08/08/06, 06:00,  18.0,  99,  22.2,  22.6,  20.8,   0.0,  0.00, 
 08/08/06, 07:00,  18.6,  99,  22.1,  22.5,  21.0,   0.0,  0.00, 
 08/08/06, 08:00,  19.8,  99,  22.1,  22.4,  21.0,   0.0,  0.00, 
 08/08/06, 09:00,  20.4,  99,  22.1,  22.3,  21.1,   0.0,  0.00, 
 08/08/06, 10:00,  22.8,  90,  22.3,  22.2,  21.1,   0.0,  0.00, 
 08/08/06, 11:00,  24.2,  87,  23.0,  22.2,  20.9,   0.0,  0.00, 
 08/08/06, 12:00,  23.8,  85,  23.7,  22.2,  20.8,   0.0,  0.00, 
 08/08/06, 13:00,  23.9,  83,  24.5,  22.2,  20.9,   0.0,  0.00, 
 08/08/06, 14:00,  22.6,  80,  25.0,  22.4,  20.9,   0.0,  0.00, 
 08/08/06, 15:00,  22.1,  97,  25.0,  22.5,  21.0,   0.5,  0.00, 
 08/08/06, 16:00,  20.6,  99,  24.9,  22.8,  21.0,   0.0,  0.00, 
 08/08/06, 17:00,  20.2,  99,  24.6,  22.9,  21.1,   0.0,  0.00, 
 08/08/06, 18:00,  20.2,  99,  24.3,  22.9,  21.0,   0.0,  0.00, 
 08/08/06, 19:00,  20.0,  99,  24.0,  23.0,  21.1,   0.0,  0.00, 
 08/08/06, 20:00,  19.6,  99,  23.9,  23.0,  21.1,   0.0,  0.00, 
 08/08/06, 21:00,  19.2,  99,  23.5,  23.0,  21.1,   0.0,  0.00, 
 08/08/06, 22:00,  18.6,  99,  23.3,  22.9,  21.1,   0.0,  0.00, 
 08/08/06, 23:00,  18.6,  99,  23.0,  22.9,  21.1,   0.0,  0.00, 
 08/08/07, 00:00,  17.9,  99,  22.9,  22.8,  20.8,   0.0,  0.00, 
 08/08/07, 01:00,  17.6,  99,  22.5,  22.7,  20.9,   0.0,  0.00, 
 08/08/07, 02:00,  17.5,  99,  22.2,  22.8,  20.9,   0.0,  0.00, 
 08/08/07, 03:00,  17.3,  99,  22.0,  22.6,  20.9,   0.0,  0.00, 
 08/08/07, 04:00,  17.9,  99,  21.8,  22.5,  21.0,   0.0,  0.00, 
 08/08/07, 05:00,  17.5,  99,  21.7,  22.4,  21.0,   0.0,  0.00, 
 08/08/07, 06:00,  17.9,  99,  21.5,  22.3,  21.2,   0.0,  0.00, 
 08/08/07, 07:00,  20.4,  89,  21.3,  22.1,  21.2,   0.0,  0.00, 
 08/08/07, 08:00,  20.2,  96,  21.4,  22.0,  21.2,   0.0,  0.00, 
 08/08/07, 09:00,  22.1,  91,  21.8,  21.9,  21.2,   0.0,  0.00, 
 08/08/07, 10:00,  22.9,  91,  22.4,  21.9,  21.3,   0.0,  0.00, 
 08/08/07, 11:00,  24.6,  86,  23.2,  21.9,  21.2,   0.0,  0.00, 
 08/08/07, 12:00,  25.3,  80,  24.3,  21.9,  21.2,   0.0,  0.00, 
 08/08/07, 13:00,  25.4,  73,  25.4,  22.1,  21.2,   0.0,  0.00, 
 08/08/07, 14:00,  26.8,  67,  25.9,  22.3,  21.2,   0.0,  0.00, 
 08/08/07, 15:00,  26.5,  72,  26.0,  22.6,  21.2,   0.0,  0.00, 
 08/08/07, 16:00,  25.8,  80,  25.9,  22.9,  21.2,   0.0,  0.00, 
 08/08/07, 17:00,  25.2,  83,  26.0,  23.0,  21.2,   0.0,  0.00, 
 08/08/07, 18:00,  23.8,  91,  25.9,  23.2,  21.2,   0.0,  0.00, 
 08/08/07, 19:00,  22.3,  97,  25.6,  23.3,  21.2,   0.0,  0.00, 
 08/08/07, 20:00,  21.7,  97,  25.3,  23.4,  21.2,   0.0,  0.00, 
 08/08/07, 21:00,  20.2,  99,  25.0,  23.4,  21.2,   0.0,  0.00, 
 08/08/07, 22:00,  20.4,  99,  24.7,  23.5,  21.2,   0.0,  0.00, 
 08/08/07, 23:00,  19.2,  99,  24.3,  23.4,  21.3,   0.0,  0.00, 
 08/08/08, 00:00,  19.7,  99,  23.9,  23.4,  21.0,   0.0,  0.00, 
 08/08/08, 01:00,  19.7,  99,  23.8,  23.3,  21.3,   0.0,  0.00, 
 08/08/08, 02:00,  19.5,  98,  23.6,  23.3,  21.0,   0.0,  0.00, 
 08/08/08, 03:00,  19.9,  88,  23.3,  23.2,  21.1,   0.0,  0.00, 
 08/08/08, 04:00,  17.6,  99,  23.0,  23.1,  21.1,   0.0,  0.00, 
 08/08/08, 05:00,  19.7,  86,  22.8,  23.0,  21.1,   0.0,  0.00, 
 08/08/08, 06:00,  21.0,  80,  22.5,  22.9,  21.1,   0.0,  0.00, 
 08/08/08, 07:00,  21.8,  80,  22.4,  22.9,  21.4,   0.0,  0.00, 
 08/08/08, 08:00,  22.3,  83,  22.4,  22.8,  21.4,   0.0,  0.00, 
 08/08/08, 09:00,  22.1,  90,  22.8,  22.6,  21.4,   0.0,  0.00, 
 08/08/08, 10:00,  23.6,  83,  23.3,  22.7,  21.4,   0.0,  0.00, 
 08/08/08, 11:00,  25.2,  77,  24.1,  22.6,  21.1,   0.0,  0.00, 
 08/08/08, 12:00,  26.2,  68,  25.2,  22.7,  21.5,   0.0,  0.00, 
 08/08/08, 13:00,  26.9,  65,  26.5,  22.8,  21.0,   0.0,  0.00, 
 08/08/08, 14:00,  26.6,  66,  26.6,  22.9,  21.4,   0.0,  0.00, 
 08/08/08, 15:00,  26.8,  69,  26.6,  23.3,  21.4,   0.0,  0.00, 
 08/08/08, 16:00,  25.8,  75,  26.5,  23.5,  21.4,   0.0,  0.00, 
 08/08/08, 17:00,  24.5,  86,  26.5,  23.7,  21.4,   0.0,  0.00, 
 08/08/08, 18:00,  22.9,  94,  26.3,  23.8,  21.4,   0.0,  0.00, 
 08/08/08, 19:00,  21.7,  96,  26.0,  23.9,  21.5,   0.0,  0.00, 
 08/08/08, 20:00,  20.9,  99,  25.5,  23.9,  21.2,   0.0,  0.00, 
 08/08/08, 21:00,  20.9,  99,  25.2,  23.9,  21.5,   0.0,  0.00, 
 08/08/08, 22:00,  20.2,  99,  24.8,  23.9,  21.5,   0.0,  0.00, 
 08/08/08, 23:00,  20.1,  99,  24.5,  23.9,  21.5,   0.0,  0.00, 
 08/08/09, 00:00,  20.0,  99,  24.1,  23.8,  21.6,   0.0,  0.00, 
 08/08/09, 01:00,  19.2,  97,  24.0,  23.7,  21.3,   0.0,  0.00, 
 08/08/09, 02:00,  20.6,  86,  23.7,  23.7,  21.3,   0.0,  0.00, 
 08/08/09, 03:00,  18.7,  94,  23.5,  23.6,  21.3,   0.0,  0.00, 
 08/08/09, 04:00,  19.1,  81,  23.2,  23.5,  21.3,   0.0,  0.00, 
 08/08/09, 05:00,  16.4,  97,  22.9,  23.4,  21.4,   0.0,  0.00, 
 08/08/09, 06:00,  19.0,  82,  22.6,  23.2,  21.7,   0.0,  0.00, 
 08/08/09, 07:00,  19.1,  87,  22.4,  23.2,  21.7,   0.0,  0.00, 
 08/08/09, 08:00,  21.7,  82,  22.4,  23.0,  21.7,   0.0,  0.00, 
 08/08/09, 09:00,  22.7,  76,  22.8,  22.9,  21.7,   0.0,  0.00, 
 08/08/09, 10:00,  24.5,  78,  23.4,  22.9,  21.7,   0.0,  0.00, 
 08/08/09, 11:00,  25.5,  72,  24.2,  22.9,  21.7,   0.0,  0.00, 
 08/08/09, 12:00,  27.0,  61,  25.4,  22.9,  21.7,   0.0,  0.00, 
 08/08/09, 13:00,  27.8,  53,  26.6,  22.9,  21.7,   0.0,  0.00, 
 08/08/09, 14:00,  27.4,  54,  26.8,  23.3,  21.7,   0.0,  0.00, 
 08/08/09, 15:00,  24.9,  59,  26.6,  23.5,  21.7,   0.0,  0.00, 
 08/08/09, 16:00,  26.6,  51,  26.4,  23.7,  21.4,   0.0,  0.00, 
 08/08/09, 17:00,  24.7,  68,  26.3,  23.9,  21.7,   0.0,  0.00, 
 08/08/09, 18:00,  23.6,  76,  26.1,  23.9,  21.7,   0.0,  0.00, 
 08/08/09, 19:00,  20.6,  72,  25.7,  24.0,  21.7,   0.0,  0.00, 
 08/08/09, 20:00,  18.7,  85,  25.3,  24.0,  21.7,   0.0,  0.00, 
 08/08/09, 21:00,  17.9,  90,  24.9,  24.0,  21.7,   0.0,  0.00, 
 08/08/09, 22:00,  19.0,  82,  24.4,  24.0,  21.7,   0.0,  0.00, 
 08/08/09, 23:00,  17.2,  93,  24.0,  23.9,  21.7,   0.0,  0.00, 
 08/08/10, 00:00,  17.0,  93,  23.7,  23.9,  21.5,   0.0,  0.00, 
 08/08/10, 01:00,  16.9,  94,  23.3,  23.7,  21.5,   0.0,  0.00, 
 08/08/10, 02:00,  16.8,  96,  23.0,  23.6,  21.5,   0.0,  0.00, 
 08/08/10, 03:00,  16.4,  98,  22.7,  23.5,  21.5,   0.0,  0.00, 
 08/08/10, 04:00,  16.1,  99,  22.5,  23.3,  21.5,   0.0,  0.00, 
 08/08/10, 05:00,  16.6,  99,  22.1,  23.2,  21.5,   0.0,  0.00, 
 08/08/10, 06:00,  16.5,  99,  21.9,  23.1,  21.5,   0.0,  0.00, 
 08/08/10, 07:00,  19.1,  95,  21.8,  22.9,  21.8,   0.0,  0.00, 
 08/08/10, 08:00,  20.2,  86,  21.8,  22.9,  21.8,   0.0,  0.00, 
 08/08/10, 09:00,  20.6,  84,  22.1,  22.8,  21.8,   0.0,  0.00, 
 08/08/10, 10:00,  22.9,  78,  22.6,  22.7,  21.8,   0.0,  0.00, 
 08/08/10, 11:00,  22.7,  78,  23.3,  22.5,  21.8,   0.0,  0.00, 
 08/08/10, 12:00,  24.6,  67,  24.0,  22.6,  21.8,   0.0,  0.00, 
 08/08/10, 13:00,  26.0,  62,  25.0,  22.7,  21.8,   0.0,  0.00, 
 08/08/10, 14:00,  26.1,  56,  25.2,  22.9,  21.8,   0.0,  0.00, 
 08/08/10, 15:00,  26.4,  54,  25.0,  22.9,  21.8,   0.0,  0.00, 
 08/08/10, 16:00,  23.7,  78,  25.0,  23.2,  21.8,   0.0,  0.00, 
 08/08/10, 17:00,  21.1,  79,  24.8,  23.3,  21.8,   0.0,  0.00, 
 08/08/10, 18:00,  21.3,  81,  24.6,  23.3,  21.8,   0.0,  0.00, 
 08/08/10, 19:00,  21.1,  86,  24.3,  23.3,  21.8,   0.0,  0.00, 
 08/08/10, 20:00,  19.7,  94,  24.1,  23.4,  21.8,   0.0,  0.00, 
 08/08/10, 21:00,  19.4,  97,  23.8,  23.4,  21.8,   0.0,  0.00, 
 08/08/10, 22:00,  19.8,  96,  23.6,  23.3,  21.8,   0.0,  0.00, 
 08/08/10, 23:00,  19.6,  98,  23.3,  23.3,  21.8,   0.0,  0.00, 
 08/08/11, 00:00,  19.2,  99,  23.2,  23.2,  21.8,   0.0,  0.00, 
 08/08/11, 01:00,  18.9,  99,  23.0,  23.1,  21.5,   0.0,  0.00, 
 08/08/11, 02:00,  18.8,  99,  22.8,  23.1,  21.8,   0.0,  0.00, 
 08/08/11, 03:00,  18.3,  99,  22.7,  23.0,  21.5,   0.0,  0.00, 
 08/08/11, 04:00,  17.8,  99,  22.5,  22.9,  21.8,   0.0,  0.00, 
 08/08/11, 05:00,  17.9,  99,  22.3,  22.9,  21.8,   0.0,  0.00, 
 08/08/11, 06:00,  17.9,  99,  22.1,  22.7,  21.8,   0.0,  0.00, 
 08/08/11, 07:00,  18.3,  99,  21.9,  22.7,  21.8,   0.0,  0.00, 
 08/08/11, 08:00,  20.1,  95,  21.9,  22.7,  21.8,   0.0,  0.00, 
 08/08/11, 09:00,  21.8,  84,  22.1,  22.5,  21.8,   0.0,  0.00, 
 08/08/11, 10:00,  22.7,  84,  22.9,  22.5,  21.8,   0.0,  0.00, 
 08/08/11, 11:00,  24.1,  78,  23.8,  22.4,  21.5,   0.0,  0.00, 
 08/08/11, 12:00,  25.6,  71,  24.8,  22.6,  21.8,   0.0,  0.00, 
 08/08/11, 13:00,  25.9,  68,  25.7,  22.7,  21.7,   0.0,  0.00, 
 08/08/11, 14:00,  25.8,  66,  26.0,  22.9,  21.7,   0.0,  0.00, 
 08/08/11, 15:00,  26.5,  62,  25.9,  23.1,  21.7,   0.0,  0.00, 
 08/08/11, 16:00,  25.0,  72,  25.9,  23.3,  21.7,   0.0,  0.00, 
 08/08/11, 17:00,  24.9,  66,  25.9,  23.5,  21.7,   0.0,  0.00, 
 08/08/11, 18:00,  23.2,  77,  25.7,  23.6,  21.7,   0.0,  0.00, 
 08/08/11, 19:00,  21.3,  91,  25.3,  23.6,  21.4,   0.0,  0.00, 
 08/08/11, 20:00,  20.7,  94,  25.0,  23.7,  21.4,   0.0,  0.00, 
 08/08/11, 21:00,  20.1,  98,  24.7,  23.8,  21.7,   0.0,  0.00, 
 08/08/11, 22:00,  19.7,  99,  24.4,  23.7,  21.7,   0.0,  0.00, 
 08/08/11, 23:00,  18.8,  99,  24.1,  23.8,  21.8,   0.0,  0.00, 
 08/08/12, 00:00,  19.2,  99,  23.8,  23.6,  21.8,   0.0,  0.00, 
 08/08/12, 01:00,  18.9,  99,  23.5,  23.5,  21.8,   0.0,  0.00, 
 08/08/12, 02:00,  17.6,  99,  23.3,  23.4,  21.8,   0.0,  0.00, 
 08/08/12, 03:00,  17.7,  99,  23.1,  23.4,  21.5,   0.0,  0.00, 
 08/08/12, 04:00,  19.0,  99,  22.9,  23.3,  21.5,   0.0,  0.00, 
 08/08/12, 05:00,  18.2,  99,  22.7,  23.2,  21.8,   0.0,  0.00, 
 08/08/12, 06:00,  18.4,  98,  22.6,  23.1,  21.6,   0.0,  0.00, 
 08/08/12, 07:00,  19.2,  99,  22.3,  23.0,  21.8,   0.0,  0.00, 
 08/08/12, 08:00,  20.5,  88,  22.4,  22.9,  21.7,   0.0,  0.00, 
 08/08/12, 09:00,  21.5,  90,  22.7,  22.9,  21.6,   0.0,  0.00, 
 08/08/12, 10:00,  24.3,  82,  23.2,  22.7,  21.8,   0.0,  0.00, 
 08/08/12, 11:00,  25.3,  70,  24.1,  22.8,  21.8,   0.0,  0.00, 
 08/08/12, 12:00,  26.3,  58,  25.5,  22.8,  21.8,   0.0,  0.00, 
 08/08/12, 13:00,  27.7,  44,  27.0,  23.0,  21.8,   0.0,  0.00, 
 08/08/12, 14:00,  27.5,  40,  26.8,  23.2,  21.8,   0.0,  0.00, 
 08/08/12, 15:00,  24.9,  66,  26.4,  23.4,  21.5,   0.0,  0.00, 
 08/08/12, 16:00,  25.5,  70,  26.2,  23.7,  21.8,   0.0,  0.00, 
 08/08/12, 17:00,  23.6,  78,  26.2,  23.8,  21.8,   0.0,  0.00, 
 08/08/12, 18:00,  22.1,  82,  25.9,  23.9,  21.8,   0.0,  0.00, 
 08/08/12, 19:00,  20.4,  99,  25.3,  23.9,  21.8,   0.0,  0.00, 
 08/08/12, 20:00,  20.3,  99,  25.0,  23.9,  21.8,   0.0,  0.00, 
 08/08/12, 21:00,  20.2,  99,  24.7,  23.9,  21.9,   0.0,  0.00, 
 08/08/12, 22:00,  19.9,  99,  24.4,  23.9,  21.8,   0.0,  0.00, 
 08/08/12, 23:00,  19.7,  99,  24.1,  23.8,  21.8,   0.0,  0.00, 
 08/08/13, 00:00,  19.6,  99,  23.8,  23.9,  21.7,   0.0,  0.00, 
 08/08/13, 01:00,  19.6,  99,  23.6,  23.7,  21.6,   0.0,  0.00, 
 08/08/13, 02:00,  19.2,  99,  23.4,  23.6,  21.6,   0.0,  0.00, 
 08/08/13, 03:00,  19.0,  99,  23.3,  23.5,  21.6,   0.0,  0.00, 
 08/08/13, 04:00,  18.7,  99,  23.1,  23.4,  21.7,   0.0,  0.00, 
 08/08/13, 05:00,  18.4,  99,  23.0,  23.4,  21.7,   0.0,  0.00, 
 08/08/13, 06:00,  18.2,  99,  22.8,  23.3,  21.7,   0.0,  0.00, 
 08/08/13, 07:00,  18.9,  99,  22.6,  23.2,  21.7,   0.0,  0.00, 
 08/08/13, 08:00,  20.4,  95,  22.6,  23.1,  21.9,   0.0,  0.00, 
 08/08/13, 09:00,  21.5,  91,  23.0,  23.0,  21.9,   0.0,  0.00, 
 08/08/13, 10:00,  24.5,  80,  23.4,  22.9,  21.9,   0.0,  0.00, 
 08/08/13, 11:00,  25.1,  74,  24.5,  22.9,  21.7,   0.0,  0.00, 
 08/08/13, 12:00,  24.8,  76,  25.9,  23.0,  21.6,   0.0,  0.00, 
 08/08/13, 13:00,  24.7,  70,  26.6,  23.2,  22.0,   0.0,  0.00, 
 08/08/13, 14:00,  25.6,  71,  26.7,  23.3,  21.7,   0.0,  0.00, 
 08/08/13, 15:00,  24.6,  70,  26.6,  23.5,  21.7,   0.0,  0.00, 
 08/08/13, 16:00,  24.8,  71,  26.6,  23.8,  22.0,   0.0,  0.00, 
 08/08/13, 17:00,  24.4,  74,  26.5,  23.8,  22.0,   0.0,  0.00, 
 08/08/13, 18:00,  22.0,  82,  26.2,  23.9,  22.0,   0.0,  0.00, 
 08/08/13, 19:00,  20.8,  88,  25.7,  24.0,  22.0,   0.0,  0.00, 
 08/08/13, 20:00,  19.8,  94,  25.1,  24.1,  21.7,   0.0,  0.00, 
 08/08/13, 21:00,  20.0,  94,  24.8,  24.1,  21.9,   0.0,  0.00, 
 08/08/13, 22:00,  19.8,  95,  24.4,  24.1,  22.0,   0.0,  0.00, 
 08/08/13, 23:00,  19.0,  99,  24.1,  24.0,  21.9,   0.0,  0.00, 
 08/08/14, 00:00,  19.1,  99,  23.8,  23.9,  21.9,   0.0,  0.00, 
 08/08/14, 01:00,  18.7,  99,  23.5,  23.8,  21.7,   0.0,  0.00, 
 08/08/14, 02:00,  18.5,  99,  23.3,  23.7,  21.8,   0.0,  0.00, 
 08/08/14, 03:00,  18.4,  99,  23.2,  23.6,  21.8,   0.0,  0.00, 
 08/08/14, 04:00,  17.6,  99,  22.9,  23.5,  21.8,   0.0,  0.00, 
 08/08/14, 05:00,  17.9,  98,  22.7,  23.4,  21.8,   0.0,  0.00, 
 08/08/14, 06:00,  18.1,  99,  22.4,  23.3,  21.8,   0.0,  0.00, 
 08/08/14, 07:00,  19.5,  96,  22.4,  23.3,  22.0,   0.0,  0.00, 
 08/08/14, 08:00,  20.4,  95,  22.4,  23.1,  21.8,   0.0,  0.00, 
 08/08/14, 09:00,  20.0,  94,  22.4,  23.0,  21.8,   0.0,  0.00, 
 08/08/14, 10:00,  20.2,  94,  22.7,  22.9,  22.0,   0.0,  0.00, 
 08/08/14, 11:00,  21.3,  89,  22.9,  22.9,  22.0,   0.0,  0.00, 
 08/08/14, 12:00,  21.2,  90,  23.2,  22.9,  22.0,   0.0,  0.00, 
 08/08/14, 13:00,  22.5,  88,  23.3,  22.9,  22.0,   0.0,  0.00, 
 08/08/14, 14:00,  22.1,  91,  23.7,  22.9,  22.0,   0.0,  0.00, 
 08/08/14, 15:00,  22.4,  86,  23.8,  22.9,  22.0,   0.0,  0.00, 
 08/08/14, 16:00,  21.4,  92,  23.9,  22.9,  21.7,   0.0,  0.00, 
 08/08/14, 17:00,  20.8,  94,  23.8,  22.9,  21.9,   0.0,  0.00, 
 08/08/14, 18:00,  20.4,  99,  23.7,  23.0,  21.7,   0.0,  0.00, 
 08/08/14, 19:00,  19.9,  99,  23.4,  23.0,  21.6,   0.0,  0.00, 
 08/08/14, 20:00,  19.1,  99,  23.2,  23.0,  21.7,   0.0,  0.00, 
 08/08/14, 21:00,  19.1,  99,  23.0,  23.0,  21.7,   0.0,  0.00, 
 08/08/14, 22:00,  18.9,  99,  22.8,  22.9,  21.7,   2.5,  0.00, 
 08/08/14, 23:00,  18.9,  99,  22.6,  22.9,  21.9,   0.0,  0.00, 
 08/08/15, 00:00,  18.7,  99,  22.3,  22.8,  21.6,   0.0,  0.00, 
 08/08/15, 01:00,  18.9,  99,  22.3,  22.9,  21.7,   0.0,  0.00, 
 08/08/15, 02:00,  18.9,  99,  22.1,  22.7,  21.7,   0.0,  0.00, 
 08/08/15, 03:00,  18.8,  99,  21.9,  22.6,  21.7,   0.0,  0.00, 
 08/08/15, 04:00,  18.8,  99,  21.8,  22.5,  21.6,   0.0,  0.00, 
 08/08/15, 05:00,  18.9,  99,  21.7,  22.5,  21.9,   0.0,  0.00, 
 08/08/15, 06:00,  18.8,  99,  21.7,  22.4,  21.9,   0.0,  0.00, 
 08/08/15, 07:00,  19.5,  99,  21.7,  22.3,  21.6,   0.0,  0.00, 
 08/08/15, 08:00,  20.0,  99,  21.7,  22.3,  21.8,   0.0,  0.00, 
 08/08/15, 09:00,  20.4,  98,  22.0,  22.2,  21.8,   0.0,  0.00, 
 08/08/15, 10:00,  21.5,  92,  22.5,  22.2,  21.8,   0.0,  0.00, 
 08/08/15, 11:00,  22.3,  91,  23.0,  22.2,  21.8,   0.0,  0.00, 
 08/08/15, 12:00,  22.7,  92,  23.4,  22.2,  21.8,   0.0,  0.00, 
 08/08/15, 13:00,  23.7,  88,  24.1,  22.3,  21.8,   0.0,  0.00, 
 08/08/15, 14:00,  25.8,  78,  24.3,  22.4,  21.8,   0.0,  0.00, 
 08/08/15, 15:00,  24.0,  82,  24.5,  22.5,  21.8,   0.0,  0.00, 
 08/08/15, 16:00,  25.1,  75,  24.5,  22.6,  21.8,   0.0,  0.00, 
 08/08/15, 17:00,  24.7,  77,  24.5,  22.9,  21.8,   0.0,  0.00, 
 08/08/15, 18:00,  23.2,  85,  24.5,  22.9,  21.8,   0.0,  0.00, 
 08/08/15, 19:00,  21.8,  90,  24.4,  23.0,  21.8,   0.0,  0.00, 
 08/08/15, 20:00,  21.0,  92,  24.1,  23.0,  21.5,   0.0,  0.00, 
 08/08/15, 21:00,  20.4,  98,  23.8,  23.0,  21.8,   0.0,  0.00, 
 08/08/15, 22:00,  20.2,  99,  23.4,  23.0,  21.8,   0.0,  0.00, 
 08/08/15, 23:00,  19.7,  99,  23.2,  23.0,  21.5,   0.0,  0.00, 
 08/08/16, 00:00,  18.8,  99,  22.9,  23.0,  21.8,   0.0,  0.00, 
 08/08/16, 01:00,  18.9,  99,  22.5,  22.9,  21.5,   0.0,  0.00, 